Simultaneous Nadir Overpasses (SNOs) Predictions

Prediction of SNOs between NOAA-20 and AQUA Satellite Orbit:

Table of predicted SNOs for the next 14.0 days since TLE Epoch: 6/29/2019
Index Date (NOAA-20) Time (NOAA-20) Lat,Lon (NOAA-20) SZA (NOAA-20 ) Date (AQUA) Time (AQUA) Lat,Lon (AQUA) SZA (AQUA ) Distance(km) Time Diff (sec)
1 06/30/2019 05:56:11 75.75, -30.92 75.04 06/30/2019 05:56:58 75.74, -31.01 75.02 2.47 47
2 06/30/2019 06:46:41 -76.47, 138.88 105.86 06/30/2019 06:46:11 -76.48, 138.95 105.85 1.92 30
3 07/02/2019 22:12:58 76.06, 85.90 74.85 07/02/2019 22:13:20 76.06, 85.84 74.85 1.96 22
4 07/02/2019 23:03:29 -76.73,-104.36 105.99 07/02/2019 23:02:34 -76.74,-104.27 105.97 2.41 55
5 07/05/2019 13:39:52 -73.96, 28.29 102.39 07/05/2019 13:41:06 -73.92, 28.46 102.46 6.53 74
6 07/05/2019 14:29:45 76.37,-157.23 74.71 07/05/2019 14:29:42 76.37,-157.29 74.73 1.85 3
7 07/05/2019 15:16:01 -79.86, 93.66 120.58 07/05/2019 15:14:48 -80.53, 95.92 120.29 86.08 73
8 07/08/2019 05:56:18 -75.25, 147.55 103.63 07/08/2019 05:57:07 -75.27, 147.65 103.69 2.88 49
9 07/08/2019 06:46:30 76.72, -40.14 74.56 07/08/2019 06:46:02 76.72, -40.22 74.60 2.14 28
10 07/10/2019 22:13:02 -75.72, -95.25 103.85 07/10/2019 22:13:26 -75.73, -95.17 103.89 2.40 24




NCC Satellite Simultaneous Nadir Overpasses (SNOs) Prediction Service
